Location: Fazenda Monte Alegre
(4.8500°S, 38.0333°W)
Time: 15:33:17
(UTC+00:00)

Cosmos 1939 Rocket - Pass Details

Date: 24 September 2020
Orbit: 531 x 585 km, 97.4° (Epoch: 19 October)

Event Time Altitude Azimuth Distance (km) Brightness Sun altitude
Rises 20:54:15 0° 158° (SSE) 2,766 6.2 -7.5°
Reaches altitude 10° 20:56:28 10° 151° (SSE) 1,874 5.3 -8.0°
Maximum altitude 21:00:20 43° 79° (E) 812 3.2 -9.0°
Drops below altitude 10° 21:04:14 10° 7° (N) 1,886 5.5 -10.0°
Sets 21:06:28 0° 1° (N) 2,786 6.4 -10.5°
